TimeCST,TemperatureF,Dew PointF,Humidity,Sea Level PressureIn,VisibilityMPH,Wind Direction,Wind SpeedMPH,Gust SpeedMPH,PrecipitationIn,Events,Conditions,WindDirDegrees,DateUTC
12:53 AM,23.0,17.1,78,30.42,10.0,Calm,Calm,-,N/A,,Clear,0,2013-11-28 06:53:00
1:53 AM,21.9,17.1,82,30.42,10.0,Calm,Calm,-,N/A,,Clear,0,2013-11-28 07:53:00
2:53 AM,19.9,15.1,81,30.42,10.0,Calm,Calm,-,N/A,,Clear,0,2013-11-28 08:53:00
3:53 AM,21.0,17.1,85,30.45,10.0,Calm,Calm,-,N/A,,Clear,0,2013-11-28 09:53:00
4:53 AM,19.9,15.1,81,30.47,10.0,Calm,Calm,-,N/A,,Clear,0,2013-11-28 10:53:00
5:53 AM,19.9,17.1,89,30.48,10.0,Calm,Calm,-,N/A,,Clear,0,2013-11-28 11:53:00
6:53 AM,17.1,14.0,88,30.47,10.0,Calm,Calm,-,N/A,,Clear,0,2013-11-28 12:53:00
7:53 AM,24.1,19.0,81,30.48,10.0,Calm,Calm,-,N/A,,Clear,0,2013-11-28 13:53:00
8:53 AM,28.9,19.0,67,30.49,10.0,SSE,3.5,-,N/A,,Clear,150,2013-11-28 14:53:00
9:53 AM,34.0,16.0,48,30.49,10.0,South,4.6,-,N/A,,Clear,190,2013-11-28 15:53:00
10:53 AM,37.9,14.0,38,30.50,10.0,Variable,3.5,-,N/A,,Clear,0,2013-11-28 16:53:00
11:53 AM,41.0,17.1,38,30.48,10.0,West,3.5,-,N/A,,Clear,270,2013-11-28 17:53:00
12:53 PM,44.1,16.0,32,30.45,10.0,SW,5.8,-,N/A,,Clear,220,2013-11-28 18:53:00
1:53 PM,45.0,16.0,31,30.43,10.0,Calm,Calm,-,N/A,,Clear,0,2013-11-28 19:53:00
2:53 PM,46.0,17.1,31,30.43,10.0,Calm,Calm,-,N/A,,Clear,0,2013-11-28 20:53:00
3:53 PM,46.9,19.0,33,30.44,10.0,SSW,4.6,-,N/A,,Clear,200,2013-11-28 21:53:00
4:53 PM,42.1,19.9,41,30.44,10.0,SSW,5.8,-,N/A,,Clear,200,2013-11-28 22:53:00
5:53 PM,37.9,21.0,51,30.45,10.0,Calm,Calm,-,N/A,,Clear,0,2013-11-28 23:53:00
6:53 PM,34.0,23.0,64,30.47,10.0,Calm,Calm,-,N/A,,Clear,0,2013-11-29 00:53:00
7:53 PM,32.0,23.0,69,30.48,10.0,Calm,Calm,-,N/A,,Clear,0,2013-11-29 01:53:00
8:53 PM,30.0,24.1,79,30.47,10.0,Calm,Calm,-,N/A,,Clear,0,2013-11-29 02:53:00
9:53 PM,28.0,21.9,78,30.49,10.0,Calm,Calm,-,N/A,,Clear,0,2013-11-29 03:53:00
10:53 PM,27.0,23.0,85,30.51,10.0,Calm,Calm,-,N/A,,Clear,0,2013-11-29 04:53:00
11:53 PM,26.1,21.9,84,30.51,10.0,Calm,Calm,-,N/A,,Clear,0,2013-11-29 05:53:00